Вернуться в каталог

SL-6 R/B(2)

АктивенHEO
NORAD 16402·ROCKET BODY·🇷🇺 Russia

Запущен Dec 24, 1985 с Plesetsk Cosmodrome

Loading…

Ближайшие Пролёты (ближайшие 24 часа)

TLE

СвежийSource: Space-Track

Эпоха: Sep 8, 2026, 03:03 UTC

1 16402U 85117F   26251.12751141 -.00000664  00000-0  62809-3 0  9998
2 16402  63.1362  19.7327 7435698 253.9877  19.6954  1.96568670292205

Отслеживайте SL-6 R/B(2) в реальном времени с AllMySat

Download on the App Store